Regional Weather Roundup
Issued by NWS

Home | Current Version | Previous Version | Text Only | Print | Product List | Glossary On
Versions: 1 2 3 4 5 6 7 8 9 10 11 12 13 14 15 16 17 18 19 20 21 22 23 24 25 26 27 28 29 30 31 32 33 34 35 36 37 38 39 40 41 42 43 44 45 46 47 48 49 50
000
ASCA44 KEWX 302220
RWRMX

LATIN AMERICA AND CARIBBEAN REGIONAL WEATHER ROUNDUP
NATIONAL WEATHER SERVICE AUSTIN/SAN ANTONIO TX
500 PM CDT TUE SEP 30 2014

NOTE: "FAIR" INDICATED FEW OR NO CLOUDS BELOW 12,000 FEET WITH NO
SIGNIFICANT WEATHER AND/OR OBSTRUCTIONS TO VISIBILITY.

BAJA CALIFORNIA

CITY           SKY/WX    TMP DP  RH WIND       PRES   REMARKS
LORETO         MOSUNNY   90  73  58 N12       29.70F HX  98
LA PAZ         MOSUNNY   93  64  38 N12       29.74  HX  95
MEXICALI       SUNNY     91  34  13 NW5       29.73
S.J. DEL CABO  MOSUNNY   90  75  62 SE8       29.73F HX 100
TIJUANA        SUNNY     75  61  60 W12       29.82F

NORTHWESTERN MEXICO

CITY           SKY/WX    TMP DP  RH WIND       PRES   REMARKS
CULIACAN       PTSUNNY   95  79  59 NW12      29.67  HX 112
DURANGO        MOSUNNY   81  43  26 E6        30.05F
GUAYMAS        SUNNY     93  70  46 SW16      29.66  HX  99
HERMOSILLO     SUNNY     97  54  23 W7        29.76  HX  94
CD. JUAREZ     MOSUNNY   86  54  32 W12       29.83
LOS MOCHIS     SUNNY     93  66  40 W18       29.68F HX  96
OBREGON        SUNNY    100  55  22 W10       29.65  HX  99

NORTHEASTERN MEXICO

CITY           SKY/WX    TMP DP  RH WIND       PRES   REMARKS
CHIHUAHUA      MOSUNNY   84  54  34 E5        29.94
MATAMOROS      PTSUNNY   90  75  62 CALM      29.78  HX 100
MONTERREY      MOSUNNY   88  64  45 SE6       29.78F
NUEVO LAREDO   MOSUNNY   93  68  43 CALM      29.76  HX  97
REYNOSA        MOSUNNY   86  70  58 E3        29.75  HX  90
SALTILLO       SUNNY     86  63  45 N9        30.00F
TORREON        MOSUNNY   90  50  25 CALM      29.90F
CD. VICTORIA   MOSUNNY   90  68  48 S6        29.77  HX  93

WESTERN MEXICO

CITY           SKY/WX    TMP DP  RH WIND       PRES   REMARKS
AGUASCALIENTES PTSUNNY   77  45  31 E14       30.04
COLIMA         LGT RAIN  73  72  94 SW12      29.85R
DEL BAJIO      PTSUNNY   79  57  47 N7        30.06F
GUADALAJARA    CLOUDY    79  59  50 CALM      29.98
MANZANILLO     PTSUNNY   84  77  79 NE9       29.69  HX  94
MAZATLAN       PTSUNNY   88  77  70 SW12      29.66F HX 100
P. VALLARTA    CLOUDY    86  73  66 SW5       29.72F HX  93
URUAPAN        PTSUNNY   72  66  83 S8        30.00F
ZACATECAS      PTSUNNY   75  46  35 N12       30.10F

CENTRAL MEXICO

CITY           SKY/WX    TMP DP  RH WIND       PRES   REMARKS
CUERNAVACA     PTSUNNY   81  63  54 S6        29.92F
MEXICO CITY    PTSUNNY   73  52  46 E14       30.11F
MORELIA        PTSUNNY   77  59  53 S14       30.02
POZA RICA      MOSUNNY   90  73  58 E12       29.76F HX  98
PUEBLA         MOSUNNY   73  52  46 SW6       30.12F
QUERETARO      PTSUNNY   77  54  44 NE6       30.08S
S. LUIS POTOSI PTSUNNY   75  50  41 N9        30.06F
TAMPICO        MOSUNNY   86  72  62 E9        29.76S HX  92
TOLUCA         PTSUNNY   70  46  43 S16       30.18F

SOUTHERN MEXICO

CITY           SKY/WX    TMP DP  RH WIND       PRES   REMARKS
ACAPULCO       PTSUNNY   82  79  89 E8        29.72S HX  93
B. DE HUATULCO MOSUNNY   82  73  74 E12       29.79
OAXACA         PTSUNNY   79  54  41 E6        30.01F
P. ESCONDIDO   PTSUNNY   84  75  74 S41       29.87S HX  92
VERACRUZ       MOSUNNY   86  73  66 E8        29.77F HX  93
ZIHUATANEJO    CLOUDY    86  75  70 S12       29.71F HX  95

YUCATAN PENINSULA

CITY           SKY/WX    TMP DP  RH WIND       PRES   REMARKS
CAMPECHE       MOSUNNY   90  75  62 E9        29.75F HX 100
CANCUN         MOSUNNY   86  75  70 SE12      29.82S HX  95
CHETUMAL       MOSUNNY   88  77  70 E6        29.77  HX 100
CD. DEL CARMEN MOSUNNY   91  75  59 E5        29.74  HX 102
COZUMEL        MOSUNNY   82  75  78 SE6       29.82S
MERIDA         MOSUNNY   91  72  52 E5        29.78F HX  98
MINATITLAN     PTSUNNY   86  77  74 CALM      29.74  HAZE    HX  97
TAPACHULA      MOSUNNY   86  81  84 SW17      29.75R HX 102
TUX. GUTIERREZ PTSUNNY   88  70  55 SE3       29.80S HX  92
VILLAHERMOSA   MOSUNNY   90  75  62 CALM      29.76F HX 100

CENTRAL AMERICA

CITY           SKY/WX    TMP DP  RH WIND       PRES   REMARKS
BELIZE CITY    MOSUNNY   90  79  70 E9        29.77F HX 105
MANAGUA        PTCLDY    90  79  70 E7        29.71S HX 105

CARIBBEAN

CITY           SKY/WX    TMP DP  RH WIND       PRES   REMARKS
ARUBA          PTCLDY    86  79  79 E22       29.80S HX  99
CURACAO        PTCLDY    84  77  79 E16       29.86S HX  94
KINGSTON       MOSUNNY   86  77  74 SE22      29.83S HX  97
NASSAU         MOSUNNY   88  75  66 NW9       29.85S THUNDER HX  97
SAN JUAN       PTCLDY    88  75  66 S6        29.94S HX  97
SANTO DOMINGO  PTCLDY    84  75  74 S7        29.92S HX  92
ST. KITTS      PTCLDY    82  77  83 E6        29.97R HX  91

$$



USA.gov is the U.S. government's official web portal to all federal, state and local government web resources and services.